Home   Weather   Falkensee   Past weeks

Flag for Germany Past Weather in Falkensee, Brandenburg, Germany — Yesterday and Last 2 Weeks

Now
45 °F

Light rain. Passing clouds.


Feels Like: 40 °F
Forecast: 33 / 45 °F
Wind: 9 mph from Southwest

Location: Berlin-Tegel

Current Time: Dec 11, 2016 at 7:16:22 am

Latest Report: Dec 11, 2016 at 6:20 am


Visibility: 4 mi

Pressure: 29.77 "Hg

Humidity: 93%

Dew Point: 43 °F

Location of FalkenseeLocation

Past Weather in Falkensee — Graph

°F

Falkensee Temperature Yesterday

Maximum temperature yesterday: 50 °F (at 3:50 am)
Minimum temperature yesterday: 46 °F (at 5:50 pm)
Average temperature yesterday: 48 °F

High & Low Weather Summary for the Past Weeks

 TemperatureHumidityPressure
High52 °F (Dec 8, 1:20 pm)100% (Nov 26, 5:20 am)30.57 "Hg (Nov 26, 5:20 am)
Low19 °F (Nov 29, 1:20 am)56% (Nov 28, 2:20 pm)29.74 "Hg (Dec 1, 10:20 pm)
Average36 °F87%30.23 "Hg
* Reported Nov 26 5:20 am — Dec 11 5:50 am, Falkensee, Weather by CustomWeather, © 2016

Note: Actual official high and low records may vary slightly from our data, if they occured in-between our weather recording intervals... More about our weather records

Advertising

Falkensee Weather History for the Previous 24 Hours

Scroll right to see more
 ConditionsComfort  
Time TempWeatherWind HumidityBarometerVisibility
5:50 am
Sun, Dec 11
45 °FLight rain. Fog.8 mph93%29.80 "Hg3 mi
5:20 am45 °FLight rain. Fog.7 mph100%29.83 "Hg3 mi
4:50 am45 °FDrizzle. Fog.5 mph100%29.83 "Hg2 mi
4:20 am46 °FLight rain. Fog.8 mph93%29.86 "Hg2 mi
3:50 am46 °FLight rain. Fog.8 mph93%29.89 "Hg3 mi
3:20 am46 °FLight rain. Fog.7 mph93%29.92 "Hg3 mi
2:50 am46 °FLight rain. Fog.7 mph93%29.95 "Hg3 mi
2:20 am46 °FLight rain. Fog.8 mph93%29.95 "Hg3 mi
1:50 am46 °FLight rain. Fog.6 mph93%29.98 "Hg3 mi
1:20 am46 °FDrizzle. Fog.7 mph93%29.98 "Hg2 mi
12:50 am46 °FDrizzle. Fog.9 mph93%30.01 "Hg3 mi
12:20 am46 °FDrizzle. Fog.10 mph93%30.01 "Hg3 mi
11:50 pm
Sat, Dec 10
46 °FPassing clouds.10 mph93%30.04 "Hg4 mi
11:20 pm46 °FPassing clouds.10 mph93%30.04 "Hg4 mi
10:50 pm46 °FPassing clouds.12 mph93%30.04 "Hg5 mi
10:20 pm46 °FPassing clouds.10 mph93%30.04 "Hg5 mi
9:50 pm46 °FPassing clouds.8 mph93%30.07 "Hg5 mi
9:20 pm46 °FPassing clouds.10 mph93%30.07 "Hg4 mi
8:50 pm46 °FPassing clouds.10 mph93%30.07 "Hg4 mi
8:20 pm46 °FPassing clouds.12 mph93%30.07 "Hg5 mi
7:50 pm46 °FPassing clouds.10 mph93%30.09 "Hg5 mi
7:20 pm46 °FPassing clouds.10 mph93%30.09 "HgN/A
6:50 pm46 °FPassing clouds.12 mph93%30.09 "HgN/A
6:20 pm46 °FLow clouds.13 mph93%30.09 "HgN/A
5:50 pm46 °FLow clouds.13 mph93%30.09 "HgN/A
5:20 pm48 °FLow clouds.13 mph87%30.09 "HgN/A
4:50 pm48 °FLight rain. Passing clouds.14 mph87%30.09 "HgN/A
4:20 pm48 °FLight rain. Passing clouds.14 mph87%30.09 "HgN/A
3:50 pm48 °FLight rain. Partly sunny.13 mph82%30.09 "HgN/A
3:20 pm48 °FLight rain. Partly sunny.15 mph82%30.09 "HgN/A
2:50 pm48 °FLight rain. Partly sunny.15 mph82%30.09 "HgN/A
2:20 pm50 °FPartly sunny.13 mph76%30.07 "HgN/A
1:50 pm50 °FPartly sunny.16 mph76%30.07 "HgN/A
1:20 pm50 °FPartly sunny.15 mph76%30.07 "HgN/A
12:50 pm50 °FBroken clouds.17 mph76%30.07 "HgN/A
12:20 pm50 °FSunny.17 mph76%30.07 "Hg10 mi
11:50 am50 °FPassing clouds.14 mph76%30.07 "HgN/A
11:20 am50 °FSunny.16 mph76%30.07 "Hg10 mi
10:50 am50 °FSunny.14 mph76%30.09 "Hg10 mi
10:20 am50 °FSunny.12 mph82%30.09 "Hg10 mi
9:50 am50 °FSunny.10 mph82%30.09 "Hg10 mi
9:20 am48 °FSunny.9 mph87%30.09 "Hg10 mi
8:50 am48 °FSunny.8 mph87%30.09 "Hg10 mi
8:20 am48 °FSunny.10 mph87%30.09 "Hg10 mi
7:50 am48 °FClear.13 mph87%30.09 "Hg10 mi
7:20 am48 °FClear.13 mph87%30.09 "Hg10 mi
Weather by CustomWeather, © 2016

See weather overviewHow to use our weather pages